Regional Weather Roundup
Issued by NWS

Home | Current Version | Previous Version | Text Only | Print | Product List | Glossary Off
Versions: 1 2 3 4 5 6 7 8 9 10 11 12 13 14 15 16 17 18 19 20 21 22 23 24 25 26 27 28 29 30 31 32 33 34 35 36 37 38 39 40 41 42 43 44 45 46 47 48 49 50

000
ASUS43 KLMK 030510
RWRKY
KENTUCKY REGIONAL WEATHER ROUNDUP
NATIONAL WEATHER SERVICE LOUISVILLE KY
1200 AM EST TUE MAR 03 2015

NOTE "FAIR" INDICATES FEW OR NO CLOUDS BELOW 12,000 FEET
WITH NO SIGNIFICANT WEATHER AND/OR OBSTRUCTIONS TO VISIBILITY.

KYZ001>023-026-027-061>063-070>075-030600-
WESTERN AND SOUTH CENTRAL KENTUCKY

CITY           SKY/WX    TMP DP  RH WIND       PRES   REMARKS
PADUCAH        CLOUDY    36  24  62 N3        30.25S
HENDERSON      CLOUDY    34  21  60 E7        30.25F WCI  28
OWENSBORO      MOCLDY    34  22  61 E9        30.25F WCI  27
HOPKINSVILLE   CLOUDY    39  26  61 E5        30.23F
BOWLING GREEN  MOCLDY    37  23  56 E7        30.25F WCI  32
GLASGOW        CLOUDY    34  25  68 E6        30.26F WCI  29
$$

KYZ024-025-028>034-038-045-046-053-030600-
NORTH CENTRAL KENTUCKY

CITY           SKY/WX    TMP DP  RH WIND       PRES   REMARKS
LOUISVILLE/SDF MOCLDY    31  19  61 E6        30.28F WCI  25
LOUISVILLE/LOU FAIR      32  18  56 E3        30.29F
FORT KNOX      FAIR      30  19  64 E7        30.25F WCI  23
$$

KYZ035>037-039>044-047>052-055>060-089>105-030600-
NORTHEAST KENTUCKY

CITY           SKY/WX    TMP DP  RH WIND       PRES   REMARKS
LEXINGTON      FAIR      28  19  69 E8        30.28F WCI  20
COVINGTON      CLOUDY    27  16  63 E8        30.30F WCI  19
FRANKFORT      FAIR      27  17  66 E6        30.28F WCI  20
$$

KYZ054-064>069-076>088-106>120-030600-
SOUTHEAST KENTUCKY

CITY           SKY/WX    TMP DP  RH WIND       PRES   REMARKS
JACKSON        FAIR      31  17  56 VRB5      30.26F WCI  26
LONDON         FAIR      34  18  52 CALM      30.26F
SOMERSET       FAIR      32  23  69 E5        30.27F WCI  27
MIDDLESBORO    FAIR      32  31  97 CALM      30.28F
MONTICELLO     FAIR      33  27  79 CALM      30.28F
$$




USA.gov is the U.S. government's official web portal to all federal, state and local government web resources and services.